Location: La Coruña
(43.3623°N, 8.4115°W)
Time: 01:15:06
(UTC+01:00)

STARLINK-1122 - Pass Details

Date: 21 January 2020
Orbit: 349 x 350 km, 53.0° (Epoch: 17 February)

Event Time Altitude Azimuth Distance (km) Brightness Sun altitude
Rises 19:43:58 0° 277° (W) 2,178 8.1 -13.3°
Reaches altitude 10° 19:46:24 10° 297° (WNW) 1,337 6.3 -13.8°
Maximum altitude 19:48:33 18° 344° (NNW) 973 4.9 -14.2°
Enters shadow 19:49:48 15° 15° (NNE) 1,110 4.9 -14.4°
